Scottsdale, AZ

4:57 PM MST on May 25, 2017 (GMT -0700)
Scottsdale

Weather History for KSDL - April, 2013

Change the Weather History Date:

Monday, April 1, 2013

  Actual Average Record
Temperature  
Mean Temperature 71 °F -  
Max Temperature 80 °F 72 °F 95 °F (2011)
Min Temperature 62 °F 51 °F 42 °F (1999)
Cooling Degree Days 6    
Growing Degree Days 21 (Base 50)    
Moisture  
Dew Point 32 °F    
Average Humidity 26    
Maximum Humidity 45    
Minimum Humidity 10    
Precipitation  
Precipitation 0.00 in - - ()
Sea Level Pressure  
Sea Level Pressure 29.89 in    
Wind  
Wind Speed 3 mph (WSW)    
Max Wind Speed 12 mph    
Max Gust Speed 17 mph    
Visibility 10 miles    
Events      
Averages and records for this station are not official NWS values.
T = Trace of Precipitation, MM = Missing Value Source: NWS Daily Summary

Daily Weather History Graph

Daily Weather History Graph

Search for Another Location

Airport or City:

Trip Planner

Search our weather history database for the weather conditions in past years. The results will help you decide how hot, cold, wet, or windy it might be!

Date:

Astronomy

Apr. 01, 2013 Rise Set
Actual Time 6:14 AM MST 6:48 PM MST
Civil Twilight 5:49 AM MST 7:13 PM MST
Nautical Twilight 5:20 AM MST 7:43 PM MST
Astronomical Twilight 4:50 AM MST 8:13 PM MST
Moon No Moon Rise 10:17 AM MST (4/1)
Length of Visible Light 13h 23m
Length of Day
12h 33m
Waning Gibbous, 66% of the Moon is Illuminated
Apr 1
Waning Gibbous
Apr 2
Last Quarter
Apr 10
New
Apr 18
First Quarter
Apr 25
Full

Hourly Weather History & Observations

Time (MST) Temp. Dew Point Humidity Pressure Visibility Wind Dir Wind Speed Gust Speed Precip Events Conditions
12:53 AM 70.0 °F 37.9 °F 31% 29.87 in 10.0 mi Calm Calm - N/A   Clear
1:53 AM 70.0 °F 37.9 °F 31% 29.87 in 10.0 mi WNW 3.5 mph - N/A   Clear
3:53 AM 63.0 °F 41.0 °F 45% 29.88 in 10.0 mi Calm Calm - N/A   Clear
4:53 AM 62.1 °F 39.9 °F 44% 29.90 in 10.0 mi Calm Calm - N/A   Clear
5:53 AM 62.1 °F 39.0 °F 43% 29.91 in 10.0 mi SSE 3.5 mph - N/A   Clear
6:53 AM 62.1 °F 39.9 °F 44% 29.93 in 10.0 mi Calm Calm - N/A   Clear
7:53 AM 64.0 °F 39.9 °F 41% 29.94 in 10.0 mi Calm Calm - N/A   Clear
8:53 AM 68.0 °F 39.0 °F 35% 29.94 in 10.0 mi SSE 3.5 mph - N/A   Clear
9:53 AM 71.1 °F 37.9 °F 30% 29.95 in 10.0 mi Calm Calm - N/A   Clear
10:53 AM 73.9 °F 37.0 °F 26% 29.95 in 10.0 mi Variable 3.5 mph - N/A   Clear
11:53 AM 77.0 °F 35.1 °F 22% 29.94 in 10.0 mi South 5.8 mph - N/A   Clear
12:53 PM 78.1 °F 26.1 °F 15% 29.91 in 10.0 mi West 5.8 mph - N/A   Clear
1:53 PM 80.1 °F 18.0 °F 10% 29.89 in 10.0 mi SW 11.5 mph - N/A   Clear
3:53 PM 79.0 °F 23.0 °F 13% 29.86 in 10.0 mi WSW 10.4 mph - N/A   Clear
4:53 PM 79.0 °F 28.0 °F 15% 29.85 in 10.0 mi WSW 6.9 mph 17.3 mph N/A   Clear
5:53 PM 78.1 °F 27.0 °F 15% 29.85 in 10.0 mi SW 8.1 mph - N/A   Clear
6:53 PM 77.0 °F 24.1 °F 14% 29.85 in 10.0 mi WSW 6.9 mph - N/A   Clear
7:53 PM 75.0 °F 24.1 °F 15% 29.84 in 10.0 mi WSW 4.6 mph - N/A   Clear
8:53 PM 73.0 °F 25.0 °F 17% 29.85 in 10.0 mi Variable 3.5 mph - N/A   Clear
9:53 PM 72.0 °F 26.1 °F 18% 29.86 in 10.0 mi WSW 4.6 mph - N/A   Clear
10:53 PM 69.1 °F 27.0 °F 21% 29.84 in 10.0 mi WSW 4.6 mph - N/A   Clear
11:53 PM 66.0 °F 26.1 °F 22% 29.84 in 10.0 mi WNW 3.5 mph - N/A   Clear